Date,Installs,Update checks
2023-03-29,4,1
2023-03-30,5,3
2023-03-31,7,1
2023-04-01,2,2
2023-04-02,1,2
2023-04-03,10,6
2023-04-04,6,5
2023-04-05,4,8
2023-04-06,5,5
2023-04-07,2,3
2023-04-08,1,2
2023-04-09,1,8
2023-04-10,3,6
2023-04-11,4,11
2023-04-12,2,10
2023-04-13,4,10
2023-04-14,3,7
2023-04-15,1,5
2023-04-16,1,9
2023-04-17,6,17
2023-04-18,4,17
2023-04-19,6,9
2023-04-20,9,13
2023-04-21,9,11
2023-04-22,2,7
2023-04-23,2,13
2023-04-24,3,23
2023-04-25,3,22
2023-04-26,4,21
2023-04-27,3,17
2023-04-28,9,18
2023-04-29,7,11
2023-04-30,7,13
2023-05-01,7,22
2023-05-02,10,25
2023-05-03,8,22
2023-05-04,9,24
2023-05-05,8,17
2023-05-06,4,14
2023-05-07,2,16
2023-05-08,12,22
2023-05-09,6,33
2023-05-10,8,24
2023-05-11,7,25
2023-05-12,13,21
2023-05-13,6,15
2023-05-14,2,10
2023-05-15,4,29
2023-05-16,6,33
2023-05-17,13,31
2023-05-18,5,27
2023-05-19,7,21
2023-05-20,9,14
2023-05-21,5,23
2023-05-22,3,32
2023-05-23,10,37
2023-05-24,6,33
2023-05-25,11,36
2023-05-26,5,37
2023-05-27,3,16
2023-05-28,1,19
2023-05-29,5,27
2023-05-30,5,37
2023-05-31,6,34
2023-06-01,6,31
2023-06-02,3,25
2023-06-03,2,22
2023-06-04,1,24
2023-06-05,10,33
2023-06-06,4,40
2023-06-07,7,37
2023-06-08,5,34
2023-06-09,4,29
2023-06-10,4,22
2023-06-11,3,23
2023-06-12,3,39
2023-06-13,6,41
2023-06-14,8,36
2023-06-15,6,30
2023-06-16,8,37
2023-06-17,0,31
2023-06-18,1,29
2023-06-19,3,32
2023-06-20,6,33
2023-06-21,6,33
2023-06-22,5,36
2023-06-23,6,34
2023-06-24,3,25
2023-06-25,1,27
2023-06-26,3,40
2023-06-27,3,27
2023-06-28,6,37
2023-06-29,0,28
2023-06-30,0,26
2023-07-01,3,22
2023-07-02,2,24
2023-07-03,4,31
2023-07-04,2,25
2023-07-05,0,24
2023-07-06,4,26
2023-07-07,0,27
2023-07-08,2,20
2023-07-09,1,24
2023-07-10,1,35
2023-07-11,2,29
2023-07-12,1,27
2023-07-13,2,25
2023-07-14,2,29
2023-07-15,4,22
2023-07-16,0,23
2023-07-17,3,30
2023-07-18,1,35
2023-07-19,2,29
2023-07-20,1,30
2023-07-21,3,30
2023-07-22,1,25
2023-07-23,4,25
2023-07-24,1,28
2023-07-25,2,26
2023-07-26,0,28
2023-07-27,3,18
2023-07-28,3,30
2023-07-29,3,25
2023-07-30,4,29
2023-07-31,4,30
2023-08-01,0,34
2023-08-02,1,26
2023-08-03,2,28
2023-08-04,0,31
2023-08-05,2,23
2023-08-06,0,24
2023-08-07,0,25
2023-08-08,2,27
2023-08-09,2,18
2023-08-10,0,26
2023-08-11,1,29
2023-08-12,2,21
2023-08-13,0,19
2023-08-14,5,26
2023-08-15,7,25
2023-08-16,7,36
2023-08-17,4,30
2023-08-18,1,31
2023-08-19,0,19
2023-08-20,1,28
2023-08-21,5,34
2023-08-22,4,34
2023-08-23,5,35
2023-08-24,6,33
2023-08-25,7,35
2023-08-26,2,27
2023-08-27,2,22
2023-08-28,6,40
2023-08-29,6,35
2023-08-30,8,35
2023-08-31,4,40
2023-09-01,5,36
2023-09-02,1,24
2023-09-03,5,25
2023-09-04,5,29
2023-09-05,6,45
2023-09-06,15,47
2023-09-07,11,45
2023-09-08,8,35
2023-09-09,4,37
2023-09-10,3,32
2023-09-11,12,47
2023-09-12,6,48
2023-09-13,7,54
2023-09-14,6,39
2023-09-15,13,42
2023-09-16,2,31
2023-09-17,3,37
2023-09-18,11,49
2023-09-19,7,53
2023-09-20,9,57
2023-09-21,9,58
2023-09-22,10,51
2023-09-23,1,29
2023-09-24,4,28
2023-09-25,8,59
2023-09-26,6,39
2023-09-27,11,54
2023-09-28,6,51
2023-09-29,9,37
2023-09-30,5,29
2023-10-01,3,29
2023-10-02,11,59
2023-10-03,14,58
2023-10-04,11,58
2023-10-05,12,55
2023-10-06,8,57
2023-10-07,4,37
2023-10-08,3,38
2023-10-09,6,62
2023-10-10,20,70
2023-10-11,16,66
2023-10-12,18,61
2023-10-13,10,66
2023-10-14,0,37
2023-10-15,6,34
2023-10-16,4,86
2023-10-17,11,74
2023-10-18,9,70
2023-10-19,13,87
2023-10-20,9,66
2023-10-21,5,39
2023-10-22,1,43
2023-10-23,15,76
2023-10-24,7,77
2023-10-25,6,66
2023-10-26,10,67
2023-10-27,12,66
2023-10-28,10,40
2023-10-29,3,47
2023-10-30,11,78
2023-10-31,8,68
2023-11-01,8,68
2023-11-02,12,83
2023-11-03,7,74
2023-11-04,2,44
2023-11-05,1,53
2023-11-06,10,88
2023-11-07,8,82
2023-11-08,6,82
2023-11-09,9,76
2023-11-10,11,64
2023-11-11,3,44
2023-11-12,4,52
2023-11-13,7,98
2023-11-14,6,87
2023-11-15,11,84
2023-11-16,10,91
2023-11-17,8,74
2023-11-18,6,42
2023-11-19,6,49
2023-11-20,6,73
2023-11-21,4,75
2023-11-22,6,70
2023-11-23,9,66
2023-11-24,7,65
2023-11-25,3,45
2023-11-26,0,50
2023-11-27,2,101
2023-11-28,12,93
2023-11-29,17,103
2023-11-30,11,87
2023-12-01,10,76
2023-12-02,2,43
2023-12-03,1,45
2023-12-04,6,85
2023-12-05,9,77
2023-12-06,5,49
2023-12-07,7,60
2023-12-08,7,57
2023-12-09,6,30
2023-12-10,6,23
2023-12-11,7,58
2023-12-12,10,63
2023-12-13,6,56
2023-12-14,15,45
2023-12-15,9,49
2023-12-16,2,25
2023-12-17,3,26
2023-12-18,9,53
2023-12-19,5,47
2023-12-20,5,39
2023-12-21,7,30
2023-12-22,2,28
2023-12-23,2,26
2023-12-24,1,14
2023-12-25,2,23
2023-12-26,0,24
2023-12-27,1,22
2023-12-28,2,22
2023-12-29,2,27
2023-12-30,1,24
2023-12-31,0,22
2024-01-01,1,24
2024-01-02,2,32
2024-01-03,3,43
2024-01-04,2,37
2024-01-05,1,37
2024-01-06,1,31
2024-01-07,0,31
2024-01-08,3,51
2024-01-09,6,56
2024-01-10,3,53
2024-01-11,5,50
2024-01-12,3,57
2024-01-13,4,25
2024-01-14,2,33
2024-01-15,0,39
2024-01-16,3,57
2024-01-17,4,56
2024-01-18,7,55
2024-01-19,5,48
2024-01-20,4,36
2024-01-21,6,35
2024-01-22,3,63
2024-01-23,4,76
2024-01-24,7,66
2024-01-25,0,74
2024-01-26,3,70
2024-01-27,0,40
2024-01-28,3,41
2024-01-29,4,73
2024-01-30,11,64
2024-01-31,3,77
2024-02-01,9,71
2024-02-02,14,65
2024-02-03,1,38
2024-02-04,0,42
2024-02-05,3,74
2024-02-06,6,73
2024-02-07,5,78
2024-02-08,9,69
2024-02-09,4,74
2024-02-10,3,42
2024-02-11,3,47
2024-02-12,2,79
2024-02-13,3,71
2024-02-14,6,69
2024-02-15,4,71
2024-02-16,4,69
2024-02-17,4,41
2024-02-18,7,43
2024-02-19,2,62
2024-02-20,2,77
2024-02-21,3,69
2024-02-22,6,80
2024-02-23,5,60
2024-02-24,0,43
2024-02-25,2,40
2024-02-26,5,76
2024-02-27,3,76
2024-02-28,5,77
2024-02-29,7,83
2024-03-01,8,69
2024-03-02,0,39
2024-03-03,2,46
2024-03-04,7,72
2024-03-05,5,79
2024-03-06,8,87
2024-03-07,5,86
2024-03-08,2,65
2024-03-09,0,37
2024-03-10,1,45
2024-03-11,4,71
2024-03-12,3,78
2024-03-13,4,74
2024-03-14,5,65
2024-03-15,1,68
2024-03-16,0,32
2024-03-17,2,51
2024-03-18,9,77
2024-03-19,9,77
2024-03-20,7,82
2024-03-21,3,70
2024-03-22,10,86
2024-03-23,4,47
2024-03-24,4,61
2024-03-25,3,80
2024-03-26,2,84
2024-03-27,1,76
2024-03-28,2,75
2024-03-29,2,56
2024-03-30,2,46
2024-03-31,1,44
2024-04-01,0,61
2024-04-02,4,78
2024-04-03,10,70
2024-04-04,1,74
2024-04-05,4,71
2024-04-06,3,40
2024-04-07,5,43
2024-04-08,5,75
2024-04-09,1,82
2024-04-10,3,80
2024-04-11,3,88
2024-04-12,2,79
2024-04-13,3,53
2024-04-14,1,53
2024-04-15,6,93
2024-04-16,7,90
2024-04-17,5,76
2024-04-18,6,89
2024-04-19,6,80
2024-04-20,0,43
2024-04-21,1,50
2024-04-22,3,92
2024-04-23,4,84
2024-04-24,4,89
2024-04-25,3,90
2024-04-26,2,71
2024-04-27,1,60
2024-04-28,1,52
2024-04-29,3,94
2024-04-30,5,89
2024-05-01,5,73
2024-05-02,1,92
2024-05-03,1,70
2024-05-04,0,43
2024-05-05,0,50
2024-05-06,5,92
2024-05-07,3,89
2024-05-08,3,87
2024-05-09,3,81
2024-05-10,2,70
2024-05-11,1,36
2024-05-12,2,54
2024-05-13,2,97
2024-05-14,3,86
2024-05-15,1,87
2024-05-16,1,79
2024-05-17,1,69
2024-05-18,0,47
2024-05-19,2,38
2024-05-20,3,77
2024-05-21,1,76
2024-05-22,1,65
2024-05-23,2,86
2024-05-24,0,66
2024-05-25,0,34
2024-05-26,0,54
2024-05-27,5,66
2024-05-28,7,87
2024-05-29,3,74
2024-05-30,2,74
2024-05-31,1,55
2024-06-01,0,37
2024-06-02,0,36
2024-06-03,3,64
2024-06-04,4,72
2024-06-05,2,55
2024-06-06,4,61
2024-06-07,2,44
2024-06-08,2,30
2024-06-09,1,39
2024-06-10,1,10
